When you browse on this site, cookies collect data to enhance your experience and personalize the content and advertising you see.
Visit our Privacy Policy to learn more. By continuing to use the site, you agree to this use of cookies and data.
  • In Österreich
  • Länderverzeichnis
  • Für 7 Tage
  • Wassertemperatur
  • Satellitenkarten
  • Wetterkarte
  • News
  • Widgets
  • user-avatar
    Anmelden

    Stündliche Wetter Mingachevir

    Heute, 18 Juli, Donnerstag

    Zeit Temperatur Niederschläge Wind Luftdruck Luftfeuchtigkeit
    00:00 +27°C° 0 mm 5 m/S 746 mmHg 56%
    01:00 +27°C° 0 mm 4 m/S 746 mmHg 59%
    02:00 +26°C° 0 mm 4 m/S 746 mmHg 61%
    03:00 +25°C° 0 mm 3 m/S 746 mmHg 64%
    04:00 +26°C° 0 mm 3 m/S 747 mmHg 62%
    05:00 +26°C° 0 mm 3 m/S 747 mmHg 61%
    06:00 +26°C° 0 mm 2 m/S 747 mmHg 59%
    07:00 +28°C° 0 mm 3 m/S 747 mmHg 53%
    08:00 +30°C° 0 mm 3 m/S 747 mmHg 47%
    09:00 +33°C° 0 mm 4 m/S 746 mmHg 41%
    10:00 +34°C° 0 mm 3 m/S 746 mmHg 39%
    11:00 +35°C° 0 mm 3 m/S 746 mmHg 37%
    12:00 +37°C° 0 mm 3 m/S 746 mmHg 34%
    13:00 +37°C° 0 mm 3 m/S 745 mmHg 33%
    14:00 +38°C° 0 mm 2 m/S 745 mmHg 32%
    15:00 +39°C° 0 mm 2 m/S 744 mmHg 30%
    16:00 +38°C° 0 mm 2 m/S 744 mmHg 31%
    17:00 +38°C° 0 mm 2 m/S 745 mmHg 32%
    18:00 +38°C° 0 mm 2 m/S 745 mmHg 33%
    19:00 +36°C° 0 mm 2 m/S 745 mmHg 36%
    20:00 +35°C° 0 mm 2 m/S 745 mmHg 39%
    21:00 +32°C° 0 mm 2 m/S 746 mmHg 42%
    22:00 +31°C° 0 mm 3 m/S 746 mmHg 44%
    23:00 +29°C° 0 mm 3 m/S 746 mmHg 46%

    Morgen, 19 Juli, Freitag

    Zeit Temperatur Niederschläge Wind Luftdruck Luftfeuchtigkeit
    00:00 +28°C° 0 mm 4 m/S 746 mmHg 47%
    01:00 +28°C° 0 mm 3 m/S 746 mmHg 50%
    02:00 +27°C° 0 mm 2 m/S 746 mmHg 53%
    03:00 +26°C° 0 mm 1 m/S 746 mmHg 56%
    04:00 +27°C° 0 mm 1 m/S 747 mmHg 56%
    05:00 +27°C° 0 mm 1 m/S 747 mmHg 55%
    06:00 +28°C° 0 mm 2 m/S 747 mmHg 55%
    07:00 +30°C° 0 mm 2 m/S 748 mmHg 51%
    08:00 +31°C° 0 mm 2 m/S 748 mmHg 47%
    09:00 +34°C° 0 mm 2 m/S 748 mmHg 43%
    10:00 +35°C° 0 mm 2 m/S 748 mmHg 40%
    11:00 +36°C° 0 mm 2 m/S 748 mmHg 37%
    12:00 +38°C° 0 mm 2 m/S 747 mmHg 34%
    13:00 +38°C° 0 mm 2 m/S 747 mmHg 32%
    14:00 +39°C° 0 mm 3 m/S 747 mmHg 30%
    15:00 +40°C° 0 mm 3 m/S 747 mmHg 29%
    16:00 +39°C° 0 mm 3 m/S 747 mmHg 29%
    17:00 +39°C° 0 mm 3 m/S 747 mmHg 30%
    18:00 +39°C° 0 mm 3 m/S 748 mmHg 30%
    19:00 +37°C° 0 mm 4 m/S 748 mmHg 35%
    20:00 +35°C° 0 mm 5 m/S 749 mmHg 39%
    21:00 +33°C° 0 mm 6 m/S 750 mmHg 43%
    22:00 +32°C° 0 mm 5 m/S 750 mmHg 44%
    23:00 +30°C° 0 mm 4 m/S 750 mmHg 46%

    übermorgen, 20 Juli, Samstag

    Zeit Temperatur Niederschläge Wind Luftdruck Luftfeuchtigkeit
    00:00 +30°C° 0 mm 4 m/S 751 mmHg 47%
    01:00 +29°C° 0 mm 3 m/S 751 mmHg 49%
    02:00 +28°C° 0 mm 2 m/S 751 mmHg 52%
    03:00 +28°C° 0 mm 1 m/S 751 mmHg 54%
    04:00 +28°C° 0 mm 1 m/S 751 mmHg 53%
    05:00 +28°C° 0 mm 1 m/S 751 mmHg 53%
    06:00 +29°C° 0 mm 1 m/S 752 mmHg 52%
    07:00 +30°C° 0 mm 1 m/S 752 mmHg 48%
    08:00 +32°C° 0 mm 2 m/S 752 mmHg 44%
    09:00 +34°C° 0 mm 2 m/S 752 mmHg 40%
    10:00 +36°C° 0 mm 3 m/S 752 mmHg 36%
    11:00 +37°C° 0 mm 4 m/S 752 mmHg 33%
    12:00 +40°C° 0 mm 5 m/S 752 mmHg 29%
    13:00 +41°C° 0 mm 5 m/S 752 mmHg 27%
    14:00 +41°C° 0 mm 6 m/S 752 mmHg 26%
    15:00 +42°C° 0 mm 6 m/S 751 mmHg 24%
    16:00 +41°C° 0 mm 7 m/S 751 mmHg 25%
    17:00 +40°C° 0 mm 8 m/S 752 mmHg 27%
    18:00 +40°C° 0 mm 9 m/S 752 mmHg 28%
    19:00 +38°C° 0 mm 9 m/S 753 mmHg 31%
    20:00 +35°C° 0 mm 9 m/S 753 mmHg 35%
    21:00 +33°C° 0 mm 8 m/S 754 mmHg 38%
    22:00 +33°C° 0 mm 7 m/S 754 mmHg 39%
    23:00 +32°C° 0 mm 7 m/S 754 mmHg 40%

    21 Juli, Sonntag

    Zeit Temperatur Niederschläge Wind Luftdruck Luftfeuchtigkeit
    00:00 +30°C° 0 mm 6 m/S 754 mmHg 41%
    01:00 +30°C° 0 mm 5 m/S 754 mmHg 42%
    02:00 +29°C° 0 mm 5 m/S 754 mmHg 43%
    03:00 +29°C° 0 mm 4 m/S 754 mmHg 44%
    04:00 +29°C° 0 mm 4 m/S 754 mmHg 43%
    05:00 +29°C° 0 mm 5 m/S 754 mmHg 43%
    06:00 +29°C° 0 mm 5 m/S 754 mmHg 42%
    07:00 +32°C° 0 mm 6 m/S 754 mmHg 39%
    08:00 +34°C° 0 mm 7 m/S 754 mmHg 35%
    09:00 +36°C° 0 mm 7 m/S 754 mmHg 31%
    10:00 +38°C° 0 mm 7 m/S 754 mmHg 30%
    11:00 +39°C° 0 mm 7 m/S 753 mmHg 28%
    12:00 +40°C° 0 mm 7 m/S 753 mmHg 27%
    13:00 +40°C° 0 mm 7 m/S 752 mmHg 26%
    14:00 +41°C° 0 mm 6 m/S 751 mmHg 25%
    15:00 +41°C° 0 mm 6 m/S 751 mmHg 24%
    16:00 +41°C° 0 mm 6 m/S 751 mmHg 25%
    17:00 +40°C° 0 mm 6 m/S 751 mmHg 26%
    18:00 +40°C° 0 mm 6 m/S 751 mmHg 27%
    19:00 +38°C° 0 mm 6 m/S 751 mmHg 31%
    20:00 +35°C° 0 mm 5 m/S 751 mmHg 35%
    21:00 +33°C° 0 mm 5 m/S 752 mmHg 39%
    22:00 +32°C° 0 mm 5 m/S 752 mmHg 41%
    23:00 +30°C° 0 mm 4 m/S 752 mmHg 44%

    22 Juli, Montag

    Zeit Temperatur Niederschläge Wind Luftdruck Luftfeuchtigkeit
    00:00 +29°C° 0 mm 4 m/S 752 mmHg 47%
    01:00 +28°C° 0 mm 3 m/S 751 mmHg 49%
    02:00 +27°C° 0 mm 3 m/S 751 mmHg 51%
    03:00 +27°C° 0 mm 2 m/S 751 mmHg 54%
    04:00 +27°C° 0 mm 2 m/S 751 mmHg 52%
    05:00 +28°C° 0 mm 2 m/S 751 mmHg 51%
    06:00 +28°C° 0 mm 2 m/S 751 mmHg 50%
    07:00 +30°C° 0 mm 3 m/S 750 mmHg 45%
    08:00 +33°C° 0 mm 3 m/S 750 mmHg 39%
    09:00 +35°C° 0 mm 4 m/S 750 mmHg 34%
    10:00 +36°C° 0 mm 4 m/S 750 mmHg 32%
    11:00 +37°C° 0 mm 4 m/S 749 mmHg 30%
    12:00 +40°C° 0 mm 5 m/S 749 mmHg 28%
    13:00 +40°C° 0 mm 5 m/S 748 mmHg 26%
    14:00 +41°C° 0 mm 5 m/S 747 mmHg 25%
    15:00 +42°C° 0 mm 5 m/S 747 mmHg 24%
    16:00 +42°C° 0 mm 5 m/S 747 mmHg 25%
    17:00 +41°C° 0 mm 5 m/S 747 mmHg 25%
    18:00 +41°C° 0 mm 5 m/S 747 mmHg 26%
    19:00 +39°C° 0 mm 5 m/S 747 mmHg 31%
    20:00 +35°C° 0 mm 5 m/S 747 mmHg 35%
    21:00 +33°C° 0 mm 5 m/S 748 mmHg 40%
    22:00 +32°C° 0 mm 4 m/S 748 mmHg 42%
    23:00 +30°C° 0 mm 4 m/S 748 mmHg 44%

    23 Juli, Dienstag

    Zeit Temperatur Niederschläge Wind Luftdruck Luftfeuchtigkeit
    00:00 +30°C° 0 mm 3 m/S 747 mmHg 47%
    01:00 +29°C° 0 mm 3 m/S 747 mmHg 49%
    02:00 +28°C° 0 mm 2 m/S 747 mmHg 50%
    03:00 +28°C° 0 mm 1 m/S 747 mmHg 52%
    04:00 +28°C° 0 mm 2 m/S 748 mmHg 53%
    05:00 +28°C° 0 mm 2 m/S 748 mmHg 53%
    06:00 +29°C° 0 mm 2 m/S 748 mmHg 54%
    07:00 +30°C° 0 mm 2 m/S 748 mmHg 48%
    08:00 +32°C° 0 mm 2 m/S 748 mmHg 42%
    09:00 +35°C° 0 mm 2 m/S 747 mmHg 36%
    10:00 +36°C° 0 mm 3 m/S 747 mmHg 33%
    11:00 +37°C° 0 mm 3 m/S 747 mmHg 31%
    12:00 +40°C° 0 mm 4 m/S 747 mmHg 28%
    13:00 +40°C° 0 mm 4 m/S 746 mmHg 27%
    14:00 +40°C° 0 mm 4 m/S 746 mmHg 26%
    15:00 +41°C° 0 mm 4 m/S 745 mmHg 26%
    16:00 +41°C° 0 mm 4 m/S 745 mmHg 27%
    17:00 +39°C° 0 mm 3 m/S 745 mmHg 28%
    18:00 +39°C° 0 mm 3 m/S 746 mmHg 29%
    19:00 +37°C° 0 mm 4 m/S 746 mmHg 33%
    20:00 +35°C° 0 mm 4 m/S 747 mmHg 37%
    21:00 +33°C° 0 mm 5 m/S 747 mmHg 42%
    22:00 +32°C° 0 mm 4 m/S 747 mmHg 44%
    23:00 +30°C° 0 mm 3 m/S 747 mmHg 46%
    Mehr zeigen